Year,Month,Day,Hour,Minute,Value (Times are PST for temperature in C)
2009,06,16,00,00,14.40
2009,06,16,00,01,14.40
2009,06,16,00,02,14.40
2009,06,16,00,03,14.40
2009,06,16,00,04,14.40
2009,06,16,00,05,14.40
2009,06,16,00,06,14.30
2009,06,16,00,07,14.40
2009,06,16,00,08,14.40
2009,06,16,00,09,14.40
2009,06,16,00,10,14.30
2009,06,16,00,11,14.30
2009,06,16,00,12,14.30
2009,06,16,00,13,14.30
2009,06,16,00,14,14.30
2009,06,16,00,15,14.30
2009,06,16,00,16,14.30
2009,06,16,00,17,14.30
2009,06,16,00,18,14.20
2009,06,16,00,19,14.20
2009,06,16,00,20,14.20
2009,06,16,00,21,14.20
2009,06,16,00,22,14.20
2009,06,16,00,23,14.20
2009,06,16,00,24,14.20
2009,06,16,00,25,14.20
2009,06,16,00,26,14.10
2009,06,16,00,27,14.10
2009,06,16,00,28,14.10
2009,06,16,00,29,14.10
2009,06,16,00,30,14.10
2009,06,16,00,31,14.10
2009,06,16,00,32,14.10
2009,06,16,00,33,14.10
2009,06,16,00,34,14.10
2009,06,16,00,35,14.10
2009,06,16,00,36,14.10
2009,06,16,00,37,14.10
2009,06,16,00,38,14.10
2009,06,16,00,39,14.10
2009,06,16,00,40,14.10
2009,06,16,00,41,14.10
2009,06,16,00,42,14.00
2009,06,16,00,43,14.00
2009,06,16,00,44,14.00
2009,06,16,00,45,14.00
2009,06,16,00,46,14.00
2009,06,16,00,47,14.00
2009,06,16,00,48,13.90
2009,06,16,00,49,13.90
2009,06,16,00,50,13.90
2009,06,16,00,51,13.90
2009,06,16,00,52,13.90
2009,06,16,00,53,13.90
2009,06,16,00,54,13.90
2009,06,16,00,55,13.80
2009,06,16,00,56,13.80
2009,06,16,00,57,13.80
2009,06,16,00,58,13.80
2009,06,16,00,59,13.80
2009,06,16,01,00,13.80
2009,06,16,01,01,13.80
2009,06,16,01,02,13.80
2009,06,16,01,03,13.80
2009,06,16,01,04,13.80
2009,06,16,01,05,13.80
2009,06,16,01,06,13.80
2009,06,16,01,07,13.70
2009,06,16,01,08,13.70
2009,06,16,01,09,13.70
2009,06,16,01,10,13.70
2009,06,16,01,11,13.70
2009,06,16,01,12,13.70
2009,06,16,01,13,13.70
2009,06,16,01,14,13.70
2009,06,16,01,15,13.70
2009,06,16,01,16,13.70
2009,06,16,01,17,13.70
2009,06,16,01,18,13.70
2009,06,16,01,19,13.70
2009,06,16,01,20,13.70
2009,06,16,01,21,13.60
2009,06,16,01,22,13.60
2009,06,16,01,23,13.60
2009,06,16,01,24,13.60
2009,06,16,01,25,13.60
2009,06,16,01,26,13.60
2009,06,16,01,27,13.60
2009,06,16,01,28,13.60
2009,06,16,01,29,13.50
2009,06,16,01,30,13.50
2009,06,16,01,31,13.50
2009,06,16,01,32,13.50
2009,06,16,01,33,13.50
2009,06,16,01,34,13.40
2009,06,16,01,35,13.40
2009,06,16,01,36,13.40
2009,06,16,01,37,13.30
2009,06,16,01,38,13.30
2009,06,16,01,39,13.30
2009,06,16,01,40,13.30
2009,06,16,01,41,13.30
2009,06,16,01,42,13.30
2009,06,16,01,43,13.30
2009,06,16,01,44,13.30
2009,06,16,01,45,13.30
2009,06,16,01,46,13.20
2009,06,16,01,47,13.20
2009,06,16,01,48,13.20
2009,06,16,01,49,13.20
2009,06,16,01,50,13.20
2009,06,16,01,51,13.20
2009,06,16,01,52,13.20
2009,06,16,01,53,13.20
2009,06,16,01,54,13.20
2009,06,16,01,55,13.20
2009,06,16,01,56,13.20
2009,06,16,01,57,13.20
2009,06,16,01,58,13.20
2009,06,16,01,59,13.30
2009,06,16,02,00,13.30
2009,06,16,02,01,13.30
2009,06,16,02,02,13.20
2009,06,16,02,03,13.20
2009,06,16,02,04,13.20
2009,06,16,02,05,13.20
2009,06,16,02,06,13.20
2009,06,16,02,07,13.10
2009,06,16,02,08,13.10
2009,06,16,02,09,13.10
2009,06,16,02,10,13.10
2009,06,16,02,11,13.00
2009,06,16,02,12,13.00
2009,06,16,02,13,13.00
2009,06,16,02,14,13.00
2009,06,16,02,15,13.00
2009,06,16,02,16,12.90
2009,06,16,02,17,12.90
2009,06,16,02,18,12.90
2009,06,16,02,19,12.90
2009,06,16,02,20,12.90
2009,06,16,02,21,12.90
2009,06,16,02,22,12.90
2009,06,16,02,23,12.90
2009,06,16,02,24,12.90
2009,06,16,02,25,12.90
2009,06,16,02,26,12.90
2009,06,16,02,27,12.80
2009,06,16,02,28,12.80
2009,06,16,02,29,12.80
2009,06,16,02,30,12.80
2009,06,16,02,31,12.80
2009,06,16,02,32,12.80
2009,06,16,02,33,12.80
2009,06,16,02,34,12.80
2009,06,16,02,35,12.80
2009,06,16,02,36,12.80
2009,06,16,02,37,12.80
2009,06,16,02,38,12.80
2009,06,16,02,39,12.80
2009,06,16,02,40,12.80
2009,06,16,02,41,12.80
2009,06,16,02,42,12.80
2009,06,16,02,43,12.80
2009,06,16,02,44,12.80
2009,06,16,02,45,12.80
2009,06,16,02,46,12.80
2009,06,16,02,47,12.80
2009,06,16,02,48,12.80
2009,06,16,02,49,12.80
2009,06,16,02,50,12.80
2009,06,16,02,51,12.80
2009,06,16,02,52,12.80
2009,06,16,02,53,12.80
2009,06,16,02,54,12.80
2009,06,16,02,55,12.80
2009,06,16,02,56,12.80
2009,06,16,02,57,12.80
2009,06,16,02,58,12.80
2009,06,16,02,59,12.80
2009,06,16,03,00,12.80
2009,06,16,03,01,12.80
2009,06,16,03,02,12.80
2009,06,16,03,03,12.70
2009,06,16,03,04,12.70
2009,06,16,03,05,12.70
2009,06,16,03,06,12.70
2009,06,16,03,07,12.70
2009,06,16,03,08,12.70
2009,06,16,03,09,12.70
2009,06,16,03,10,12.70
2009,06,16,03,11,12.60
2009,06,16,03,12,12.60
2009,06,16,03,13,12.60
2009,06,16,03,14,12.60
2009,06,16,03,15,12.50
2009,06,16,03,16,12.50
2009,06,16,03,17,12.50
2009,06,16,03,18,12.40
2009,06,16,03,19,12.40
2009,06,16,03,20,12.40
2009,06,16,03,21,12.30
2009,06,16,03,22,12.30
2009,06,16,03,23,12.30
2009,06,16,03,24,12.30
2009,06,16,03,25,12.30
2009,06,16,03,26,12.30
2009,06,16,03,27,12.30
2009,06,16,03,28,12.30
2009,06,16,03,29,12.30
2009,06,16,03,30,12.30
2009,06,16,03,31,12.30
2009,06,16,03,32,12.20
2009,06,16,03,33,12.20
2009,06,16,03,34,12.20
2009,06,16,03,35,12.20
2009,06,16,03,36,12.20
2009,06,16,03,37,12.20
2009,06,16,03,38,12.10
2009,06,16,03,39,12.10
2009,06,16,03,40,12.10
2009,06,16,03,41,12.10
2009,06,16,03,42,12.10
2009,06,16,03,43,12.00
2009,06,16,03,44,12.00
2009,06,16,03,45,12.00
2009,06,16,03,46,12.00
2009,06,16,03,47,12.00
2009,06,16,03,48,11.90
2009,06,16,03,49,11.90
2009,06,16,03,50,11.90
2009,06,16,03,51,11.90
2009,06,16,03,52,11.90
2009,06,16,03,53,11.90
2009,06,16,03,54,11.80
2009,06,16,03,55,11.80
2009,06,16,03,56,11.80
2009,06,16,03,57,11.80
2009,06,16,03,58,11.80
2009,06,16,03,59,11.80
2009,06,16,04,00,11.80
2009,06,16,04,01,11.80
2009,06,16,04,02,11.80
2009,06,16,04,03,11.80
2009,06,16,04,04,11.80
2009,06,16,04,05,11.80
2009,06,16,04,06,11.80
2009,06,16,04,07,11.80
2009,06,16,04,08,11.70
2009,06,16,04,09,11.70
2009,06,16,04,10,11.70
2009,06,16,04,11,11.70
2009,06,16,04,12,11.70
2009,06,16,04,13,11.70
2009,06,16,04,14,11.70
2009,06,16,04,15,11.70
2009,06,16,04,16,11.70
2009,06,16,04,17,11.70
2009,06,16,04,18,11.70
2009,06,16,04,19,11.70
2009,06,16,04,20,11.70
2009,06,16,04,21,11.80
2009,06,16,04,22,11.80
2009,06,16,04,23,11.80
2009,06,16,04,24,11.80
2009,06,16,04,25,11.80
2009,06,16,04,26,11.90
2009,06,16,04,27,11.90
2009,06,16,04,28,12.00
2009,06,16,04,29,12.00
2009,06,16,04,30,12.00
2009,06,16,04,31,12.10
2009,06,16,04,32,12.10
2009,06,16,04,33,12.10
2009,06,16,04,34,12.10
2009,06,16,04,35,12.10
2009,06,16,04,36,12.10
2009,06,16,04,37,12.10
2009,06,16,04,38,12.00
2009,06,16,04,39,12.00
2009,06,16,04,40,12.00
2009,06,16,04,41,12.00
2009,06,16,04,42,12.00
2009,06,16,04,43,12.00
2009,06,16,04,44,12.10
2009,06,16,04,45,12.10
2009,06,16,04,46,12.10
2009,06,16,04,47,12.10
2009,06,16,04,48,12.10
2009,06,16,04,49,12.10
2009,06,16,04,50,12.10
2009,06,16,04,51,12.10
2009,06,16,04,52,12.10
2009,06,16,04,53,12.10
2009,06,16,04,54,12.10
2009,06,16,04,55,12.10
2009,06,16,04,56,12.10
2009,06,16,04,57,12.10
2009,06,16,04,58,12.10
2009,06,16,04,59,12.10
2009,06,16,05,00,12.10
2009,06,16,05,01,12.20
2009,06,16,05,02,12.20
2009,06,16,05,03,12.20
2009,06,16,05,04,12.10
2009,06,16,05,05,12.10
2009,06,16,05,06,12.10
2009,06,16,05,07,12.10
2009,06,16,05,08,12.10
2009,06,16,05,09,12.10
2009,06,16,05,10,12.10
2009,06,16,05,11,12.10
2009,06,16,05,12,12.10
2009,06,16,05,13,12.10
2009,06,16,05,14,12.20
2009,06,16,05,15,12.20
2009,06,16,05,16,12.10
2009,06,16,05,17,12.10
2009,06,16,05,18,12.10
2009,06,16,05,19,12.10
2009,06,16,05,20,12.10
2009,06,16,05,21,12.10
2009,06,16,05,22,12.10
2009,06,16,05,23,12.10
2009,06,16,05,24,12.10
2009,06,16,05,25,12.10
2009,06,16,05,26,12.10
2009,06,16,05,27,12.10
2009,06,16,05,28,12.10
2009,06,16,05,29,12.10
2009,06,16,05,30,12.10
2009,06,16,05,31,12.10
2009,06,16,05,32,12.10
2009,06,16,05,33,12.10
2009,06,16,05,34,12.10
2009,06,16,05,35,12.10
2009,06,16,05,36,12.10
2009,06,16,05,37,12.10
2009,06,16,05,38,12.10
2009,06,16,05,39,12.10
2009,06,16,05,40,12.10
2009,06,16,05,41,12.20
2009,06,16,05,42,12.20
2009,06,16,05,43,12.20
2009,06,16,05,44,12.20
2009,06,16,05,45,12.20
2009,06,16,05,46,12.20
2009,06,16,05,47,12.20
2009,06,16,05,48,12.20
2009,06,16,05,49,12.20
2009,06,16,05,50,12.20
2009,06,16,05,51,12.20
2009,06,16,05,52,12.20
2009,06,16,05,53,12.20
2009,06,16,05,54,12.20
2009,06,16,05,55,12.10
2009,06,16,05,56,12.10
2009,06,16,05,57,12.10
2009,06,16,05,58,12.10
2009,06,16,05,59,12.10
2009,06,16,06,00,12.20
2009,06,16,06,01,12.20
2009,06,16,06,02,12.20
2009,06,16,06,03,12.20
2009,06,16,06,04,12.20
2009,06,16,06,05,12.20
2009,06,16,06,06,12.20
2009,06,16,06,07,12.20
2009,06,16,06,08,12.30
2009,06,16,06,09,12.30
2009,06,16,06,10,12.30
2009,06,16,06,11,12.30
2009,06,16,06,12,12.30
2009,06,16,06,13,12.30
2009,06,16,06,14,12.30
2009,06,16,06,15,12.30
2009,06,16,06,16,12.30
2009,06,16,06,17,12.30
2009,06,16,06,18,12.30
2009,06,16,06,19,12.30
2009,06,16,06,20,12.30
2009,06,16,06,21,12.40
2009,06,16,06,22,12.40
2009,06,16,06,23,12.40
2009,06,16,06,24,12.40
2009,06,16,06,25,12.40
2009,06,16,06,26,12.40
2009,06,16,06,27,12.40
2009,06,16,06,28,12.50
2009,06,16,06,29,12.50
2009,06,16,06,30,12.50
2009,06,16,06,31,12.50
2009,06,16,06,32,12.50
2009,06,16,06,33,12.60
2009,06,16,06,34,12.60
2009,06,16,06,35,12.60
2009,06,16,06,36,12.60
2009,06,16,06,37,12.70
2009,06,16,06,38,12.70
2009,06,16,06,39,12.70
2009,06,16,06,40,12.70
2009,06,16,06,41,12.70
2009,06,16,06,42,12.70
2009,06,16,06,43,12.70
2009,06,16,06,44,12.70
2009,06,16,06,45,12.80
2009,06,16,06,46,12.80
2009,06,16,06,47,12.80
2009,06,16,06,48,12.80
2009,06,16,06,49,12.80
2009,06,16,06,50,12.80
2009,06,16,06,51,12.80
2009,06,16,06,52,12.80
2009,06,16,06,53,12.90
2009,06,16,06,54,12.90
2009,06,16,06,55,12.90
2009,06,16,06,56,12.90
2009,06,16,06,57,12.90
2009,06,16,06,58,13.00
2009,06,16,06,59,13.00
2009,06,16,07,00,13.00
2009,06,16,07,01,13.10
2009,06,16,07,02,13.10
2009,06,16,07,03,13.10
2009,06,16,07,04,13.20
2009,06,16,07,05,13.20
2009,06,16,07,06,13.20
2009,06,16,07,07,13.20
2009,06,16,07,08,13.30
2009,06,16,07,09,13.30
2009,06,16,07,10,13.30
2009,06,16,07,11,13.30
2009,06,16,07,12,13.30
2009,06,16,07,13,13.30
2009,06,16,07,14,13.30
2009,06,16,07,15,13.30
2009,06,16,07,16,13.40
2009,06,16,07,17,13.40
2009,06,16,07,18,13.40
2009,06,16,07,19,13.50
2009,06,16,07,20,13.50
2009,06,16,07,21,13.60
2009,06,16,07,22,13.60
2009,06,16,07,23,13.70
2009,06,16,07,24,13.70
2009,06,16,07,25,13.80
2009,06,16,07,26,13.80
2009,06,16,07,27,13.90
2009,06,16,07,28,13.90
2009,06,16,07,29,14.00
2009,06,16,07,30,14.00
2009,06,16,07,31,14.10
2009,06,16,07,32,14.10
2009,06,16,07,33,14.20
2009,06,16,07,34,14.20
2009,06,16,07,35,14.20
2009,06,16,07,36,14.30
2009,06,16,07,37,14.40
2009,06,16,07,38,14.40
2009,06,16,07,39,14.50
2009,06,16,07,40,14.50
2009,06,16,07,41,14.60
2009,06,16,07,42,14.60
2009,06,16,07,43,14.70
2009,06,16,07,44,14.70
2009,06,16,07,45,14.80
2009,06,16,07,46,14.80
2009,06,16,07,47,14.90
2009,06,16,07,48,14.90
2009,06,16,07,49,15.00
2009,06,16,07,50,15.00
2009,06,16,07,51,15.10
2009,06,16,07,52,15.10
2009,06,16,07,53,15.10
2009,06,16,07,54,15.10
2009,06,16,07,55,15.10
2009,06,16,07,56,15.10
2009,06,16,07,57,15.10
2009,06,16,07,58,15.10
2009,06,16,07,59,15.10
2009,06,16,08,00,15.10
2009,06,16,08,01,15.10
2009,06,16,08,02,15.10
2009,06,16,08,03,15.10
2009,06,16,08,04,15.10
2009,06,16,08,05,15.10
2009,06,16,08,06,15.10
2009,06,16,08,07,15.20
2009,06,16,08,08,15.20
2009,06,16,08,09,15.20
2009,06,16,08,10,15.20
2009,06,16,08,11,15.20
2009,06,16,08,12,15.20
2009,06,16,08,13,15.20
2009,06,16,08,14,15.20
2009,06,16,08,15,15.20
2009,06,16,08,16,15.20
2009,06,16,08,17,15.30
2009,06,16,08,18,15.30
2009,06,16,08,19,15.30
2009,06,16,08,20,15.30
2009,06,16,08,21,15.30
2009,06,16,08,22,15.40
2009,06,16,08,23,15.50
2009,06,16,08,24,15.50
2009,06,16,08,25,15.60
2009,06,16,08,26,15.70
2009,06,16,08,27,15.70
2009,06,16,08,28,15.80
2009,06,16,08,29,15.80
2009,06,16,08,30,15.80
2009,06,16,08,31,15.80
2009,06,16,08,32,15.60
2009,06,16,08,33,15.50
2009,06,16,08,34,15.50
2009,06,16,08,35,15.40
2009,06,16,08,36,15.30
2009,06,16,08,37,15.30
2009,06,16,08,38,15.40
2009,06,16,08,39,15.40
2009,06,16,08,40,15.40
2009,06,16,08,41,15.40
2009,06,16,08,42,15.40
2009,06,16,08,43,15.40
2009,06,16,08,44,15.50
2009,06,16,08,45,15.50
2009,06,16,08,46,15.50
2009,06,16,08,47,15.50
2009,06,16,08,48,15.60
2009,06,16,08,49,15.60
2009,06,16,08,50,15.60
2009,06,16,08,51,15.70
2009,06,16,08,52,15.70
2009,06,16,08,53,15.70
2009,06,16,08,54,15.80
2009,06,16,08,55,15.80
2009,06,16,08,56,15.80
2009,06,16,08,57,15.80
2009,06,16,08,58,15.90
2009,06,16,08,59,15.90
2009,06,16,09,00,16.10
2009,06,16,09,01,16.10
2009,06,16,09,02,16.20
2009,06,16,09,03,16.20
2009,06,16,09,04,16.30
2009,06,16,09,05,16.40
2009,06,16,09,06,16.40
2009,06,16,09,07,16.40
2009,06,16,09,08,16.40
2009,06,16,09,09,16.40
2009,06,16,09,10,16.30
2009,06,16,09,11,16.20
2009,06,16,09,12,16.20
2009,06,16,09,13,16.10
2009,06,16,09,14,16.10
2009,06,16,09,15,16.10
2009,06,16,09,16,16.10
2009,06,16,09,17,16.20
2009,06,16,09,18,16.20
2009,06,16,09,19,16.30
2009,06,16,09,20,16.30
2009,06,16,09,21,16.30
2009,06,16,09,22,16.20
2009,06,16,09,23,16.20
2009,06,16,09,24,16.20
2009,06,16,09,25,16.20
2009,06,16,09,26,16.20
2009,06,16,09,27,16.20
2009,06,16,09,28,16.30
2009,06,16,09,29,16.40
2009,06,16,09,30,16.50
2009,06,16,09,31,16.60
2009,06,16,09,32,16.70
2009,06,16,09,33,16.70
2009,06,16,09,34,16.90
2009,06,16,09,35,17.00
2009,06,16,09,36,17.00
2009,06,16,09,37,17.10
2009,06,16,09,38,17.20
2009,06,16,09,39,17.10
2009,06,16,09,40,16.90
2009,06,16,09,41,16.90
2009,06,16,09,42,16.80
2009,06,16,09,43,16.70
2009,06,16,09,44,16.60
2009,06,16,09,45,16.50
2009,06,16,09,46,16.50
2009,06,16,09,47,16.40
2009,06,16,09,48,16.40
2009,06,16,09,49,16.40
2009,06,16,09,50,16.50
2009,06,16,09,51,16.60
2009,06,16,09,52,16.70
2009,06,16,09,53,16.80
2009,06,16,09,54,16.90
2009,06,16,09,55,17.00
2009,06,16,09,56,17.00
2009,06,16,09,57,17.10
2009,06,16,09,58,17.20
2009,06,16,09,59,17.20
2009,06,16,10,00,17.30
2009,06,16,10,01,17.30
2009,06,16,10,02,17.30
2009,06,16,10,03,17.30
2009,06,16,10,04,17.20
2009,06,16,10,05,17.10
2009,06,16,10,06,17.00
2009,06,16,10,07,16.90
2009,06,16,10,08,16.90
2009,06,16,10,09,17.00
2009,06,16,10,10,17.00
2009,06,16,10,11,17.00
2009,06,16,10,12,17.10
2009,06,16,10,13,17.10
2009,06,16,10,14,16.90
2009,06,16,10,15,16.80
2009,06,16,10,16,16.70
2009,06,16,10,17,16.70
2009,06,16,10,18,16.60
2009,06,16,10,19,16.50
2009,06,16,10,20,16.40
2009,06,16,10,21,16.20
2009,06,16,10,22,16.10
2009,06,16,10,23,16.10
2009,06,16,10,24,16.20
2009,06,16,10,25,16.20
2009,06,16,10,26,16.30
2009,06,16,10,27,16.30
2009,06,16,10,28,16.30
2009,06,16,10,29,16.30
2009,06,16,10,30,16.40
2009,06,16,10,31,16.30
2009,06,16,10,32,16.30
2009,06,16,10,33,16.30
2009,06,16,10,34,16.30
2009,06,16,10,35,16.40
2009,06,16,10,36,16.40
2009,06,16,10,37,16.40
2009,06,16,10,38,16.40
2009,06,16,10,39,16.40
2009,06,16,10,40,16.40
2009,06,16,10,41,16.40
2009,06,16,10,42,16.40
2009,06,16,10,43,16.50
2009,06,16,10,44,16.60
2009,06,16,10,45,16.70
2009,06,16,10,46,16.70
2009,06,16,10,47,16.70
2009,06,16,10,48,16.80
2009,06,16,10,49,16.80
2009,06,16,10,50,16.80
2009,06,16,10,51,16.70
2009,06,16,10,52,16.60
2009,06,16,10,53,16.60
2009,06,16,10,54,16.60
2009,06,16,10,55,16.50
2009,06,16,10,56,16.40
2009,06,16,10,57,16.30
2009,06,16,10,58,16.30
2009,06,16,10,59,16.30
2009,06,16,11,00,16.20
2009,06,16,11,01,16.10
2009,06,16,11,02,16.10
2009,06,16,11,03,15.90
2009,06,16,11,04,15.80
2009,06,16,11,05,15.80
2009,06,16,11,06,15.90
2009,06,16,11,07,16.00
2009,06,16,11,08,16.10
2009,06,16,11,09,16.10
2009,06,16,11,10,16.30
2009,06,16,11,11,16.30
2009,06,16,11,12,16.40
2009,06,16,11,13,16.40
2009,06,16,11,14,16.60
2009,06,16,11,15,16.60
2009,06,16,11,16,16.60
2009,06,16,11,17,16.60
2009,06,16,11,18,16.60
2009,06,16,11,19,16.70
2009,06,16,11,20,16.70
2009,06,16,11,21,16.70
2009,06,16,11,22,16.80
2009,06,16,11,23,16.80
2009,06,16,11,24,16.90
2009,06,16,11,25,17.00
2009,06,16,11,26,17.10
2009,06,16,11,27,17.20
2009,06,16,11,28,17.30
2009,06,16,11,29,17.30
2009,06,16,11,30,17.40
2009,06,16,11,31,17.50
2009,06,16,11,32,17.50
2009,06,16,11,33,17.50
2009,06,16,11,34,17.50
2009,06,16,11,35,17.60
2009,06,16,11,36,17.60
2009,06,16,11,37,17.70
2009,06,16,11,38,17.80
2009,06,16,11,39,17.80
2009,06,16,11,40,17.70
2009,06,16,11,41,17.80
2009,06,16,11,42,17.80
2009,06,16,11,43,17.80
2009,06,16,11,44,17.70
2009,06,16,11,45,17.70
2009,06,16,11,46,17.70
2009,06,16,11,47,17.80
2009,06,16,11,48,17.70
2009,06,16,11,49,17.70
2009,06,16,11,50,17.60
2009,06,16,11,51,17.70
2009,06,16,11,52,17.70
2009,06,16,11,53,17.70
2009,06,16,11,54,17.80
2009,06,16,11,55,17.70
2009,06,16,11,56,17.70
2009,06,16,11,57,17.70
2009,06,16,11,58,17.70
2009,06,16,11,59,17.50
2009,06,16,12,00,17.50
2009,06,16,12,01,17.70
2009,06,16,12,02,17.70
2009,06,16,12,03,17.80
2009,06,16,12,04,17.90
2009,06,16,12,05,17.90
2009,06,16,12,06,18.10
2009,06,16,12,07,18.20
2009,06,16,12,08,18.20
2009,06,16,12,09,18.30
2009,06,16,12,10,18.40
2009,06,16,12,11,18.30
2009,06,16,12,12,18.30
2009,06,16,12,13,18.30
2009,06,16,12,14,18.30
2009,06,16,12,15,18.20
2009,06,16,12,16,18.20
2009,06,16,12,17,18.30
2009,06,16,12,18,18.40
2009,06,16,12,19,18.40
2009,06,16,12,20,18.50
2009,06,16,12,21,18.60
2009,06,16,12,22,18.60
2009,06,16,12,23,18.60
2009,06,16,12,24,18.50
2009,06,16,12,25,18.50
2009,06,16,12,26,18.40
2009,06,16,12,27,18.50
2009,06,16,12,28,18.50
2009,06,16,12,29,18.50
2009,06,16,12,30,18.60
2009,06,16,12,31,18.50
2009,06,16,12,32,18.50
2009,06,16,12,33,18.40
2009,06,16,12,34,18.40
2009,06,16,12,35,18.40
2009,06,16,12,36,18.30
2009,06,16,12,37,18.20
2009,06,16,12,38,18.20
2009,06,16,12,39,18.20
2009,06,16,12,40,18.30
2009,06,16,12,41,18.30
2009,06,16,12,42,18.30
2009,06,16,12,43,18.30
2009,06,16,12,44,18.30
2009,06,16,12,45,18.30
2009,06,16,12,46,18.20
2009,06,16,12,47,18.20
2009,06,16,12,48,18.10
2009,06,16,12,49,18.00
2009,06,16,12,50,17.90
2009,06,16,12,51,17.90
2009,06,16,12,52,17.90
2009,06,16,12,53,17.80
2009,06,16,12,54,17.80
2009,06,16,12,55,17.80
2009,06,16,12,56,17.80
2009,06,16,12,57,17.80
2009,06,16,12,58,17.80
2009,06,16,12,59,17.70
2009,06,16,13,00,17.80
2009,06,16,13,01,17.80
2009,06,16,13,02,17.90
2009,06,16,13,03,17.90
2009,06,16,13,04,17.90
2009,06,16,13,05,17.90
2009,06,16,13,06,17.90
2009,06,16,13,07,17.90
2009,06,16,13,08,17.80
2009,06,16,13,09,17.80
2009,06,16,13,10,17.80
2009,06,16,13,11,17.80
2009,06,16,13,12,17.80
2009,06,16,13,13,17.80
2009,06,16,13,14,17.80
2009,06,16,13,15,17.80
2009,06,16,13,16,17.90
2009,06,16,13,17,17.90
2009,06,16,13,18,17.90
2009,06,16,13,19,17.90
2009,06,16,13,20,18.10
2009,06,16,13,21,18.10
2009,06,16,13,22,18.10
2009,06,16,13,23,18.20
2009,06,16,13,24,18.20
2009,06,16,13,25,18.20
2009,06,16,13,26,18.30
2009,06,16,13,27,18.30
2009,06,16,13,28,18.30
2009,06,16,13,29,18.40
2009,06,16,13,30,18.30
2009,06,16,13,31,18.20
2009,06,16,13,32,18.10
2009,06,16,13,33,18.00
2009,06,16,13,34,17.90
2009,06,16,13,35,17.90
2009,06,16,13,36,18.00
2009,06,16,13,37,18.00
2009,06,16,13,38,17.90
2009,06,16,13,39,17.80
2009,06,16,13,40,17.70
2009,06,16,13,41,17.70
2009,06,16,13,42,17.80
2009,06,16,13,43,17.80
2009,06,16,13,44,17.90
2009,06,16,13,45,17.90
2009,06,16,13,46,17.90
2009,06,16,13,47,17.90
2009,06,16,13,48,17.90
2009,06,16,13,49,17.90
2009,06,16,13,50,18.00
2009,06,16,13,51,18.00
2009,06,16,13,52,17.90
2009,06,16,13,53,17.80
2009,06,16,13,54,17.80
2009,06,16,13,55,17.70
2009,06,16,13,56,17.70
2009,06,16,13,57,17.60
2009,06,16,13,58,17.50
2009,06,16,13,59,17.50
2009,06,16,14,00,17.50
2009,06,16,14,01,17.40
2009,06,16,14,02,17.40
2009,06,16,14,03,17.40
2009,06,16,14,04,17.40
2009,06,16,14,05,17.40
2009,06,16,14,06,17.40
2009,06,16,14,07,17.50
2009,06,16,14,08,17.50
2009,06,16,14,09,17.60
2009,06,16,14,10,17.70
2009,06,16,14,11,17.70
2009,06,16,14,12,17.80
2009,06,16,14,13,17.90
2009,06,16,14,14,17.90
2009,06,16,14,15,17.90
2009,06,16,14,16,17.90
2009,06,16,14,17,17.90
2009,06,16,14,18,17.90
2009,06,16,14,19,17.80
2009,06,16,14,20,17.70
2009,06,16,14,21,17.70
2009,06,16,14,22,17.80
2009,06,16,14,23,17.80
2009,06,16,14,24,17.90
2009,06,16,14,25,18.10
2009,06,16,14,26,18.20
2009,06,16,14,27,18.40
2009,06,16,14,28,18.50
2009,06,16,14,29,18.50
2009,06,16,14,30,18.50
2009,06,16,14,31,18.60
2009,06,16,14,32,18.60
2009,06,16,14,33,18.60
2009,06,16,14,34,18.50
2009,06,16,14,35,18.40
2009,06,16,14,36,18.40
2009,06,16,14,37,18.50
2009,06,16,14,38,18.50
2009,06,16,14,39,18.50
2009,06,16,14,40,18.60
2009,06,16,14,41,18.60
2009,06,16,14,42,18.60
2009,06,16,14,43,18.60
2009,06,16,14,44,18.60
2009,06,16,14,45,18.60
2009,06,16,14,46,18.50
2009,06,16,14,47,18.50
2009,06,16,14,48,18.50
2009,06,16,14,49,18.70
2009,06,16,14,50,18.80
2009,06,16,14,51,18.90
2009,06,16,14,52,18.90
2009,06,16,14,53,18.90
2009,06,16,14,54,18.90
2009,06,16,14,55,18.90
2009,06,16,14,56,18.90
2009,06,16,14,57,18.90
2009,06,16,14,58,18.90
2009,06,16,14,59,18.90
2009,06,16,15,00,18.90
2009,06,16,15,01,19.00
2009,06,16,15,02,19.10
2009,06,16,15,03,19.10
2009,06,16,15,04,19.20
2009,06,16,15,05,19.20
2009,06,16,15,06,19.20
2009,06,16,15,07,19.20
2009,06,16,15,08,19.30
2009,06,16,15,09,19.30
2009,06,16,15,10,19.30
2009,06,16,15,11,19.40
2009,06,16,15,12,19.40
2009,06,16,15,13,19.40
2009,06,16,15,14,19.20
2009,06,16,15,15,19.10
2009,06,16,15,16,19.00
2009,06,16,15,17,18.90
2009,06,16,15,18,18.90
2009,06,16,15,19,18.90
2009,06,16,15,20,18.90
2009,06,16,15,21,18.80
2009,06,16,15,22,18.80
2009,06,16,15,23,18.70
2009,06,16,15,24,18.70
2009,06,16,15,25,18.70
2009,06,16,15,26,18.70
2009,06,16,15,27,18.80
2009,06,16,15,28,18.80
2009,06,16,15,29,18.70
2009,06,16,15,30,18.70
2009,06,16,15,31,18.60
2009,06,16,15,32,18.60
2009,06,16,15,33,18.60
2009,06,16,15,34,18.60
2009,06,16,15,35,18.70
2009,06,16,15,36,18.80
2009,06,16,15,37,18.90
2009,06,16,15,38,18.90
2009,06,16,15,39,19.00
2009,06,16,15,40,19.10
2009,06,16,15,41,19.10
2009,06,16,15,42,19.20
2009,06,16,15,43,19.30
2009,06,16,15,44,19.40
2009,06,16,15,45,19.50
2009,06,16,15,46,19.60
2009,06,16,15,47,19.70
2009,06,16,15,48,19.70
2009,06,16,15,49,19.80
2009,06,16,15,50,19.80
2009,06,16,15,51,19.80
2009,06,16,15,52,19.80
2009,06,16,15,53,19.90
2009,06,16,15,54,19.80
2009,06,16,15,55,19.80
2009,06,16,15,56,19.70
2009,06,16,15,57,19.60
2009,06,16,15,58,19.60
2009,06,16,15,59,19.60
2009,06,16,16,00,19.50
2009,06,16,16,01,19.50
2009,06,16,16,02,19.50
2009,06,16,16,03,19.50
2009,06,16,16,04,19.50
2009,06,16,16,05,19.50
2009,06,16,16,06,19.50
2009,06,16,16,07,19.50
2009,06,16,16,08,19.40
2009,06,16,16,09,19.40
2009,06,16,16,10,19.30
2009,06,16,16,11,19.30
2009,06,16,16,12,19.20
2009,06,16,16,13,19.10
2009,06,16,16,14,19.10
2009,06,16,16,15,19.10
2009,06,16,16,16,19.20
2009,06,16,16,17,19.20
2009,06,16,16,18,19.30
2009,06,16,16,19,19.30
2009,06,16,16,20,19.40
2009,06,16,16,21,19.40
2009,06,16,16,22,19.50
2009,06,16,16,23,19.50
2009,06,16,16,24,19.50
2009,06,16,16,25,19.50
2009,06,16,16,26,19.40
2009,06,16,16,27,19.40
2009,06,16,16,28,19.50
2009,06,16,16,29,19.50
2009,06,16,16,30,19.60
2009,06,16,16,31,19.60
2009,06,16,16,32,19.70
2009,06,16,16,33,19.70
2009,06,16,16,34,19.70
2009,06,16,16,35,19.70
2009,06,16,16,36,19.70
2009,06,16,16,37,19.70
2009,06,16,16,38,19.70
2009,06,16,16,39,19.70
2009,06,16,16,40,19.80
2009,06,16,16,41,19.90
2009,06,16,16,42,19.90
2009,06,16,16,43,20.00
2009,06,16,16,44,20.10
2009,06,16,16,45,20.20
2009,06,16,16,46,20.20
2009,06,16,16,47,20.20
2009,06,16,16,48,20.20
2009,06,16,16,49,20.30
2009,06,16,16,50,20.40
2009,06,16,16,51,20.40
2009,06,16,16,52,20.50
2009,06,16,16,53,20.50
2009,06,16,16,54,20.50
2009,06,16,16,55,20.60
2009,06,16,16,56,20.60
2009,06,16,16,57,20.60
2009,06,16,16,58,20.60
2009,06,16,16,59,20.60
2009,06,16,17,00,20.50
2009,06,16,17,01,20.50
2009,06,16,17,02,20.60
2009,06,16,17,03,20.60
2009,06,16,17,04,20.60
2009,06,16,17,05,20.60
2009,06,16,17,06,20.70
2009,06,16,17,07,20.70
2009,06,16,17,08,20.80
2009,06,16,17,09,20.80
2009,06,16,17,10,20.80
2009,06,16,17,11,20.70
2009,06,16,17,12,20.70
2009,06,16,17,13,20.70
2009,06,16,17,14,20.70
2009,06,16,17,15,20.70
2009,06,16,17,16,20.70
2009,06,16,17,17,20.70
2009,06,16,17,18,20.80
2009,06,16,17,19,20.80